Temperature
11 11 11 11 11 11 11 11 12 12 12 12 12 12 12 12 12 12 12 12 12 12 12 11 11 11 11 11 11 10 10 10 10 10 10 10 9 9 9 9 9 9 8
10 10 10 10 11 11 11 11 11 11 11 11 11 12 12 12 12 11 11 11 11 11 11 11 11 11 11 10 10 10 10 10 9 9 9 9 9 9 9 9 8 8 8
9 9 10 10 10 10 10 11 11 11 11 11 11 11 11 11 11 11 11 11 11 11 11 11 10 10 10 10 10 10 9 9 9 9 9 8 8 8 8 8 8 8 8
9 9 9 9 10 10 10 10 10 10 10 11 11 11 11 11 11 11 11 11 10 10 10 10 10 10 10 10 9 9 9 9 9 9 8 8 8 7 7 7 7 7 7
8 8 9 9 9 9 9 10 10 10 10 10 10 10 10 11 10 10 10 10 10 10 10 10 10 10 9 9 9 9 9 9 8 8 8 8 7 7 6 6 7 7 7
8 8 8 8 9 9 9 9 9 9 9 10 10 10 10 10 10 10 10 10 10 10 10 9 9 9 9 9 9 9 8 8 8 8 7 7 7 7 6 6 6 6 6
7 7 8 8 8 8 8 9 9 9 9 9 9 9 9 10 10 10 10 10 10 10 9 9 9 9 9 9 9 8 8 8 8 8 7 7 7 6 6 6 5 5 5
7 7 7 7 8 8 8 8 8 8 8 9 9 9 9 9 9 9 9 9 9 9 9 9 9 9 9 8 8 8 8 8 7 7 7 7 6 6 6 5 5 4 4
6 6 7 7 7 7 8 8 8 8 8 8 8 9 9 9 9 9 9 9 9 9 9 8 8 8 8 8 8 8 7 7 7 7 7 6 6 6 5 5 5 4 3
6 6 6 6 7 7 7 7 7 7 8 8 8 8 8 8 8 8 8 8 8 8 8 8 8 8 8 7 7 7 7 7 7 6 6 6 6 5 5 5 5 4 4
6 5 5 6 6 6 6 6 7 7 7 7 7 7 8 8 8 8 8 8 8 8 8 8 7 7 7 7 7 7 7 6 6 6 6 6 5 5 5 5 4 4 3
5 5 5 5 5 6 6 6 6 6 6 7 7 7 7 7 7 7 7 7 7 7 7 7 7 7 7 7 6 6 6 6 6 6 5 5 5 5 4 4 4 3 3
5 5 5 5 5 5 5 5 5 6 6 6 6 6 7 7 7 7 7 7 7 7 6 6 6 6 6 6 6 6 6 6 5 5 5 5 4 4 4 4 3 3 3
4 4 4 4 4 4 5 5 5 5 5 5 6 6 6 6 6 6 6 6 6 6 6 6 6 6 6 6 5 5 5 5 5 5 4 4 4 4 4 3 3 2 2
3 3 3 3 4 4 4 4 4 4 5 5 5 5 5 6 6 6 6 6 6 6 6 6 6 5 5 5 5 5 5 4 4 4 4 4 4 3 3 2 2 2 2
2 2 3 3 3 3 3 3 4 4 4 4 4 4 5 5 5 5 5 5 5 5 5 5 5 5 5 5 5 4 4 4 4 4 4 3 3 3 3 2 2 2 1
2 2 2 2 3 3 3 3 3 3 3 3 4 4 4 4 4 4 5 5 5 5 5 5 5 5 4 4 4 4 4 4 3 3 3 3 3 2 2 2 2 1 1
1 2 2 2 2 2 2 3 3 3 3 3 3 3 4 4 4 4 4 4 4 4 4 4 4 4 4 4 4 3 3 3 3 3 2 2 2 2 2 2 1 1 1
1 1 1 1 2 2 2 2 2 2 2 2 3 3 3 3 3 4 4 4 4 4 4 4 4 4 3 3 3 3 3 3 2 2 2 2 2 1 1 1 1 1 1
1 1 1 1 1 1 2 2 2 2 2 2 2 2 2 2 3 3 3 3 3 3 3 3 3 3 3 3 3 2 2 2 2 2 2 1 1 1 1 1 1 1 0
0 0 1 1 1 1 1 1 2 2 2 2 2 2 2 2 2 2 3 3 3 3 2 2 2 2 2 2 2 2 2 1 1 1 1 1 1 1 1 0 0 0 -0
-0 -0 0 0 0 1 1 1 1 1 2 2 2 2 2 2 2 2 2 2 2 2 2 2 2 2 2 2 1 1 1 1 1 1 1 1 1 0 0 -0 -0 -0 -0
-1 -1 -1 -0 -0 -0 0 0 1 1 1 1 1 1 1 1 1 1 1 2 2 1 1 1 1 1 1 1 1 1 0 0 0 0 0 0 0 0 -0 -0 -0 -1 -1
-1 -1 -1 -1 -1 -1 -0 -0 0 0 0 1 1 1 1 1 1 1 1 1 1 1 1 1 1 1 1 1 1 0 0 -0 -0 -0 -0 -0 -0 -0 -0 -0 -1 -1 -1
-2 -2 -2 -1 -1 -1 -1 -0 -0 -0 -0 -0 -0 -0 -0 -0 0 0 0 0 0 0 0 0 0 0 0 0 0 -0 -0 -0 -0 -1 -1 -0 -0 -0 -1 -1 -1 -1 -1
-2 -2 -2 -2 -1 -1 -1 -1 -1 -1 -1 -1 -1 -1 -1 -1 -1 -0 -0 -1 -1 -1 -1 -0 -0 -0 -0 -0 -1 -1 -1 -1 -1 -1 -1 -1 -1 -1 -1 -1 -1 -1 -1
Wind_Speed
3 3 4 4 5 6 6 7 7 6 6 5 4 4 4 3 3 3 6 7 8 8 7 5 5 5 4 3 3 3 3 2 1 2 3 3 3 3 2 2 2 3 5
2 3 3 4 5 6 6 6 6 6 6 5 4 3 4 3 3 3 4 6 7 7 7 6 4 4 4 4 3 3 2 1 2 2 2 2 4 4 3 3 2 2 4
6 5 4 3 4 5 6 6 6 6 5 5 4 4 3 3 2 2 2 3 6 7 7 7 6 5 4 4 3 3 3 2 1 1 3 2 1 2 3 3 2 3 3
5 5 4 4 4 4 4 5 5 6 6 6 6 7 6 5 5 4 4 3 5 6 7 7 6 5 4 4 3 3 3 3 2 1 1 1 3 1 2 3 3 4 4
6 5 5 5 4 3 4 4 4 5 5 5 7 7 5 3 3 4 4 4 3 5 6 6 6 5 4 4 3 3 3 3 3 2 1 1 1 1 2 3 4 4 3
4 4 3 3 3 3 3 4 4 4 5 5 6 6 6 6 6 5 5 4 3 3 4 5 5 5 4 4 4 3 3 3 3 2 2 2 1 1 1 2 3 4 4
4 4 4 4 3 3 3 4 4 4 4 5 5 6 6 7 8 7 7 6 4 3 4 4 5 4 4 4 4 3 3 3 3 2 1 1 1 1 1 2 2 3 4
3 4 4 5 4 4 3 3 4 4 4 5 4 5 5 5 4 5 5 6 5 4 5 5 5 5 5 5 4 3 2 2 3 2 1 1 1 1 1 2 1 3 3
3 4 3 4 4 4 4 4 4 4 4 4 4 4 5 5 5 4 4 4 4 4 5 5 4 5 5 4 4 3 3 3 2 2 2 1 1 1 1 1 2 2 3
3 3 3 3 3 3 3 3 3 3 3 4 4 4 4 5 5 4 5 4 5 4 5 5 4 4 4 4 3 3 2 3 2 2 2 1 1 1 1 1 2 2 3
3 3 3 3 2 2 2 2 2 2 2 3 3 3 3 4 4 4 5 5 5 5 5 5 5 4 4 4 4 3 3 3 2 1 2 1 1 1 1 1 1 2 2
3 3 2 2 2 2 2 2 1 2 2 3 3 3 3 3 4 4 4 5 5 5 5 5 5 4 4 4 4 4 3 3 3 2 2 2 1 1 2 1 2 2 2
2 2 2 2 2 2 1 1 1 1 1 2 3 3 3 3 4 3 3 4 4 5 5 5 5 5 4 4 4 4 4 3 3 3 2 2 1 2 2 2 2 2 3
2 2 2 1 1 1 1 0 0 1 1 2 3 3 3 4 4 3 3 4 4 5 5 5 5 5 4 4 4 3 3 3 2 2 2 2 2 2 2 2 2 2 3
1 1 1 1 1 1 0 0 0 0 1 2 3 3 3 3 3 3 3 3 4 4 5 5 4 4 4 4 4 4 4 3 2 1 2 2 2 3 2 2 2 2 3
1 1 1 1 0 0 1 1 1 0 1 2 2 2 2 3 3 3 3 3 3 3 4 4 4 4 3 4 5 4 4 3 3 2 1 2 2 3 4 4 4 4 4
1 1 1 1 1 1 1 1 1 1 1 1 1 1 2 3 2 2 3 3 3 3 4 4 4 4 4 5 5 5 3 3 3 2 1 1 2 2 2 4 5 5 6
2 2 2 2 2 2 1 1 0 1 1 1 1 1 1 2 2 2 2 2 2 3 3 3 4 3 3 5 5 4 3 2 2 2 2 2 2 2 3 2 3 3 4
2 2 2 2 2 2 1 0 1 1 1 1 1 1 2 2 2 2 2 2 2 2 2 3 3 3 3 4 4 4 3 2 2 2 1 1 2 4 4 2 3 4 4
2 2 2 2 2 2 1 1 1 1 1 1 1 1 2 2 2 3 2 1 2 2 2 2 2 3 2 3 3 3 2 2 1 1 1 2 2 4 4 2 2 4 5
2 2 2 1 2 2 1 1 0 1 1 1 1 1 1 2 2 1 1 2 2 2 2 2 1 2 2 2 3 3 2 2 1 1 1 2 3 4 4 4 2 4 5
2 2 2 2 2 2 2 1 1 1 1 2 2 1 1 1 1 1 1 2 3 2 2 2 1 1 1 2 2 2 1 1 1 1 1 1 2 3 4 3 4 5 4
2 2 2 2 3 2 2 1 2 1 1 2 2 2 2 1 1 1 2 2 2 2 2 2 2 1 1 1 2 1 1 0 0 1 1 1 2 3 3 3 4 4 2
2 2 2 2 3 3 3 2 1 1 2 2 2 2 2 1 1 1 1 2 2 2 2 2 2 1 1 1 1 1 1 1 1 1 1 2 3 3 3 3 3 2 2
2 2 1 2 3 3 3 3 2 1 2 2 2 2 1 1 1 1 0 1 1 2 3 3 3 3 2 2 1 1 1 1 1 1 2 2 1 2 2 2 2 3 3
2 2 2 2 3 3 3 3 2 1 2 2 1 1 1 1 1 1 2 3 2 1 1 1 2 1 1 2 2 1 1 1 2 2 1 1 1 1 1 2 2 3 3
Wind_Direction
186 149 141 142 141 138 142 148 146 147 143 146 149 149 156 156 158 152 152 148 146 141 133 127 121 119 123 125 121 111 93 56 52 60 24 2 3 12 12 12 19 16 14
144 142 136 135 144 151 154 155 158 159 159 165 168 165 153 159 161 154 148 151 149 149 146 138 136 132 129 121 123 120 110 62 48 92 79 10 350 352 355 348 360 2 5
179 172 166 163 155 162 168 171 170 165 163 154 135 126 106 106 130 157 171 164 158 153 149 146 141 140 140 145 152 145 137 145 18 68 124 128 239 308 325 333 346 350 354
177 170 175 175 174 177 171 167 167 164 161 154 158 164 164 170 184 176 176 167 158 155 157 152 147 146 143 147 157 149 152 145 151 40 59 150 168 186 308 319 330 339 335
175 171 181 183 171 162 164 162 161 161 160 162 169 169 166 166 157 153 157 163 163 161 160 156 148 148 147 152 147 144 146 150 159 164 150 90 82 177 195 281 312 327 315
175 173 171 150 140 138 151 153 158 166 166 165 170 169 167 162 158 163 172 175 171 164 164 159 152 150 148 153 150 149 145 142 145 149 156 162 179 212 200 252 291 303 303
173 165 154 149 145 148 159 163 162 170 171 168 176 179 177 174 176 178 180 175 174 178 182 167 159 154 154 149 143 147 154 150 147 154 165 167 201 204 200 231 277 292 295
172 170 168 166 166 167 167 165 176 181 180 178 183 182 176 175 179 183 181 181 183 184 172 166 162 156 152 151 145 146 158 148 153 154 156 161 239 224 209 212 257 307 304
183 173 161 161 166 174 179 178 184 185 188 188 180 176 175 172 175 179 176 176 172 169 158 157 157 158 157 154 148 155 163 154 161 165 167 183 231 244 249 225 212 234 294
183 174 166 168 170 173 176 167 170 183 184 182 182 180 179 175 173 171 173 175 172 165 159 160 159 158 156 152 147 154 160 154 164 168 164 199 240 263 268 252 254 233 251
188 179 177 170 160 135 131 150 161 159 172 177 179 170 171 167 168 173 178 178 174 166 167 167 165 163 165 163 161 169 164 164 171 181 186 223 246 258 268 268 270 265 256
172 168 160 146 137 136 138 144 165 181 188 177 164 163 156 153 161 172 175 169 171 170 169 165 165 171 171 170 174 177 172 176 186 201 199 233 259 266 273 274 272 273 267
117 122 134 141 149 156 158 155 159 185 184 167 159 155 154 160 168 172 169 167 166 166 164 164 172 177 176 177 182 180 181 186 191 193 201 222 225 269 284 287 282 289 301
110 111 123 133 141 150 166 186 237 196 168 163 166 166 170 170 172 168 165 166 166 168 170 173 177 177 175 175 176 174 176 180 191 198 205 212 220 237 252 276 279 296 311
82 105 128 103 65 43 353 265 265 267 173 160 171 181 172 160 155 158 164 161 165 171 171 168 169 170 173 179 175 173 171 173 184 208 218 224 251 266 267 282 282 294 302
336 338 353 73 42 334 292 272 275 263 167 167 179 175 159 154 156 159 158 155 163 165 160 166 168 169 183 185 179 168 166 174 186 213 250 259 263 284 304 308 306 300 295
318 330 317 296 291 280 256 246 250 237 146 140 138 156 161 155 156 149 142 155 169 160 158 167 168 177 188 179 175 166 160 174 192 207 227 280 292 311 294 306 317 317 313
293 309 315 317 319 322 314 316 316 179 164 147 142 127 144 156 148 141 151 164 169 168 170 172 173 172 185 174 167 160 149 168 196 214 219 234 266 285 299 303 310 307 306
296 298 301 311 326 331 334 57 75 141 150 157 160 162 157 153 156 160 170 179 164 166 171 168 166 166 184 180 169 151 152 173 210 224 223 232 253 285 309 310 305 312 315
346 341 345 357 355 339 3 114 123 140 170 187 176 156 156 163 172 178 172 160 152 159 153 148 154 160 178 189 174 158 161 180 216 249 254 267 286 291 305 300 294 305 313
350 359 9 3 334 342 32 85 113 208 215 153 135 128 141 159 166 161 154 140 134 128 134 137 138 155 171 173 172 164 161 179 195 241 274 277 300 303 308 317 296 300 316
6 9 9 350 349 7 37 43 353 331 69 110 116 116 118 127 129 123 120 132 140 139 142 138 129 142 173 166 176 168 148 140 178 234 261 284 315 328 327 329 325 331 343
351 355 0 351 356 4 26 31 347 6 74 96 105 99 84 78 103 135 143 141 146 154 162 161 168 173 166 182 171 171 145 87 36 211 254 335 355 354 349 348 351 358 358
337 349 6 5 354 354 0 4 359 39 104 111 107 105 107 87 64 80 149 162 162 167 175 178 184 187 188 193 194 200 191 117 70 74 67 38 33 16 0 2 7 359 332
332 345 359 352 341 351 358 1 10 70 104 120 124 115 110 116 79 35 344 191 188 187 187 196 191 186 203 223 221 192 186 186 160 89 63 45 26 15 9 6 1 352 346
345 354 352 348 342 352 354 356 6 76 123 128 127 130 130 126 115 80 38 32 48 74 100 146 172 196 201 180 165 151 131 119 120 88 101 52 2 336 336 344 343 339 338
Height
1475 1477 1478 1480 1482 1483 1485 1487 1490 1492 1495 1497 1498 1500 1502 1505 1507 1509 1511 1512 1513 1514 1515 1516 1518 1519 1520 1520 1521 1521 1521 1522 1522 1522 1522 1522 1522 1521 1521 1520 1519 1518 1517
1473 1475 1476 1478 1479 1480 1483 1485 1488 1490 1492 1495 1497 1499 1501 1503 1505 1507 1509 1510 1511 1512 1513 1515 1516 1517 1518 1519 1519 1519 1519 1520 1520 1520 1520 1520 1521 1520 1520 1519 1518 1517 1515
1470 1472 1474 1475 1477 1478 1480 1483 1485 1487 1490 1492 1495 1497 1499 1500 1503 1504 1506 1508 1510 1510 1512 1513 1514 1516 1516 1517 1518 1518 1518 1518 1519 1519 1519 1519 1518 1518 1517 1517 1516 1515 1513
1469 1470 1472 1473 1475 1477 1479 1481 1483 1485 1487 1490 1492 1494 1495 1496 1499 1502 1504 1506 1507 1508 1510 1511 1512 1513 1514 1515 1516 1516 1517 1517 1517 1517 1518 1518 1517 1516 1514 1514 1513 1512 1511
1467 1468 1470 1471 1473 1475 1477 1479 1481 1483 1485 1487 1489 1491 1493 1495 1497 1499 1501 1503 1505 1506 1508 1509 1510 1511 1512 1513 1514 1514 1515 1515 1515 1515 1515 1515 1515 1514 1513 1510 1510 1509 1508
1465 1467 1468 1470 1472 1474 1475 1477 1478 1480 1482 1484 1487 1489 1491 1493 1494 1496 1499 1501 1502 1504 1505 1506 1507 1508 1509 1510 1511 1512 1513 1513 1513 1513 1513 1513 1513 1512 1511 1509 1507 1505 1504
1463 1464 1466 1467 1469 1471 1473 1474 1476 1478 1480 1482 1484 1486 1489 1491 1492 1494 1496 1498 1500 1501 1503 1504 1505 1506 1507 1508 1509 1510 1511 1511 1511 1511 1511 1511 1511 1510 1509 1507 1505 1502 1500
1462 1462 1463 1465 1466 1468 1470 1472 1474 1475 1477 1479 1481 1484 1486 1488 1490 1492 1494 1496 1498 1499 1501 1502 1503 1504 1505 1506 1507 1508 1508 1508 1509 1509 1509 1509 1508 1508 1507 1506 1503 1500 1497
1460 1461 1462 1463 1465 1467 1468 1470 1472 1473 1475 1477 1479 1481 1483 1485 1487 1490 1492 1494 1495 1497 1498 1500 1500 1501 1502 1504 1504 1505 1505 1506 1506 1506 1506 1506 1506 1505 1505 1503 1502 1500 1495
1459 1460 1461 1462 1463 1465 1467 1469 1470 1471 1473 1474 1476 1479 1481 1483 1485 1487 1489 1491 1493 1495 1496 1497 1498 1499 1500 1501 1502 1503 1503 1504 1504 1504 1504 1504 1503 1503 1502 1501 1499 1498 1495
1457 1458 1460 1461 1462 1464 1465 1466 1468 1469 1471 1472 1474 1476 1478 1480 1482 1484 1487 1489 1490 1492 1493 1495 1496 1497 1498 1498 1499 1500 1500 1501 1501 1501 1501 1501 1500 1499 1498 1497 1496 1494 1492
1457 1458 1459 1460 1461 1462 1463 1464 1465 1467 1468 1470 1472 1474 1476 1478 1480 1482 1484 1486 1487 1489 1491 1492 1493 1494 1496 1496 1497 1497 1498 1498 1498 1498 1498 1498 1497 1496 1495 1494 1492 1491 1489
1456 1457 1458 1459 1459 1460 1461 1462 1463 1465 1466 1468 1469 1471 1473 1475 1477 1479 1481 1483 1485 1486 1488 1489 1490 1492 1493 1494 1494 1495 1495 1496 1496 1496 1495 1495 1494 1493 1492 1491 1489 1487 1485
1456 1456 1457 1457 1458 1459 1459 1460 1461 1462 1464 1465 1467 1468 1470 1472 1475 1477 1479 1480 1482 1484 1485 1486 1488 1489 1490 1491 1492 1492 1493 1493 1493 1493 1492 1492 1491 1490 1489 1487 1486 1484 1482
1456 1456 1456 1456 1457 1457 1458 1458 1459 1460 1462 1463 1464 1466 1468 1470 1472 1474 1476 1478 1479 1481 1482 1484 1485 1486 1487 1488 1489 1490 1490 1490 1490 1490 1490 1489 1488 1487 1486 1484 1483 1481 1478
1455 1455 1455 1455 1455 1455 1456 1456 1457 1458 1459 1461 1462 1464 1466 1468 1469 1471 1473 1474 1476 1478 1479 1481 1482 1483 1484 1485 1486 1487 1487 1487 1487 1487 1486 1486 1485 1484 1483 1482 1480 1478 1476
1454 1454 1454 1454 1454 1455 1455 1455 1455 1456 1458 1459 1460 1462 1463 1465 1467 1468 1470 1472 1473 1475 1476 1478 1479 1480 1481 1482 1483 1483 1484 1484 1483 1483 1483 1482 1482 1481 1479 1478 1477 1475 1473
1454 1453 1453 1453 1453 1453 1454 1454 1454 1455 1456 1457 1458 1460 1461 1462 1464 1466 1467 1469 1470 1472 1473 1475 1476 1477 1478 1479 1480 1480 1480 1480 1480 1480 1480 1479 1478 1477 1476 1475 1473 1471 1469
1453 1453 1452 1452 1452 1452 1452 1452 1453 1453 1454 1455 1456 1458 1459 1460 1462 1463 1465 1466 1467 1469 1470 1472 1473 1474 1475 1476 1476 1477 1477 1477 1477 1477 1476 1476 1475 1474 1473 1472 1470 1468 1466
1452 1451 1451 1451 1450 1451 1451 1451 1451 1452 1452 1453 1454 1456 1457 1458 1460 1461 1462 1464 1465 1466 1468 1469 1470 1471 1472 1472 1473 1474 1473 1473 1473 1473 1473 1473 1472 1471 1470 1469 1467 1464 1462
1451 1450 1450 1449 1449 1449 1449 1449 1449 1450 1451 1452 1453 1454 1455 1456 1458 1459 1460 1461 1462 1464 1465 1466 1467 1468 1469 1469 1470 1471 1471 1470 1470 1470 1470 1469 1469 1468 1467 1466 1464 1462 1460
1449 1448 1448 1447 1448 1448 1448 1448 1448 1449 1449 1450 1451 1452 1453 1454 1456 1457 1457 1458 1460 1461 1462 1463 1464 1465 1466 1466 1467 1468 1468 1468 1468 1468 1467 1466 1466 1465 1464 1463 1461 1460 1458
1447 1447 1447 1446 1446 1447 1447 1447 1447 1447 1448 1449 1449 1450 1451 1452 1453 1454 1455 1456 1457 1458 1459 1460 1460 1461 1462 1463 1464 1465 1465 1466 1466 1465 1465 1464 1464 1463 1461 1460 1458 1457 1455
1446 1446 1445 1445 1445 1445 1446 1446 1446 1446 1447 1447 1448 1448 1449 1450 1451 1452 1453 1453 1454 1455 1456 1457 1458 1458 1459 1460 1461 1462 1462 1463 1463 1463 1462 1462 1461 1460 1459 1457 1456 1455 1453
1445 1445 1445 1444 1444 1444 1444 1444 1444 1445 1445 1446 1446 1447 1448 1448 1449 1450 1450 1451 1452 1453 1454 1454 1455 1456 1456 1458 1459 1459 1460 1460 1460 1460 1460 1459 1458 1457 1456 1455 1454 1452 1451
1444 1444 1444 1443 1443 1443 1443 1443 1443 1443 1444 1444 1445 1445 1446 1447 1447 1448 1449 1449 1450 1451 1452 1453 1454 1454 1455 1456 1456 1457 1458 1458 1458 1458 1457 1456 1456 1455 1454 1453 1451 1450 1449